{"data":{"norad_id":63441,"intl_designator":"2025-069J","name":"STARLINK-33715","alt_names":[],"object_type":"PAYLOAD","status":"ACTIVE","operator":null,"country":"US","launch_date":"2025-04-04","launch_site_code":"AFWTR","launch_vehicle":null,"mission":null,"orbit_class":"UNKNOWN","rcs_meters":null,"size_class":null,"mass_kg":null,"dimensions":null,"purposes":["comms"],"wikipedia_slug":null,"has_3d_model":false,"image_url":null,"decayed_at":null,"tle_current":{"epoch":"2026-05-24T06:53:43.886400Z","epoch_age_seconds":136321,"freshness":"FRESH","line1":"1 63441U 25069J   26144.28731350  .00029030  00000+0  67388-3 0  9994","line2":"2 63441  53.1591 148.8734 0001092  84.1787 275.9343 15.42166458 65013","mean_motion":15.42166458,"eccentricity":0.0001092,"inclination_deg":53.1591,"raan_deg":148.8734,"arg_perigee_deg":84.1787,"mean_anomaly_deg":275.9343,"bstar":0.00067388,"rev_number":6501,"period_min":93.375134216543,"perigee_km":438.97211031604,"apogee_km":440.46112954663,"semimajor_km":6817.8536199313,"source":"CELESTRAK","updated_at":"2026-05-25T13:38:19.999556Z"}}}